Printer-friendly version
Follow the MPC on Twitter Follow the MPC on Facebook The MPC blog
Minor Planet Center

MPEC 2001-C39 : 2000 EE104

The following Minor Planet Electronic Circular may be linked-to from your own Web pages, but must not otherwise be redistributed electronically.

A form allowing access to any MPEC is at the bottom of this page.


Read MPEC 2001-C38 Read MPEC 2001-D01


M.P.E.C. 2001-C39                                Issued 2001 Feb. 15, 23:43 UT

     The Minor Planet Electronic Circulars contain information on unusual
         minor planets and routine data on comets.  They are published
   on behalf of Commission 20 of the International Astronomical Union by the
          Minor Planet Center, Smithsonian Astrophysical Observatory,
                          Cambridge, MA 02138, U.S.A.

             Prepared using the Tamkin Foundation Computer Network

                              MPC@CFA.HARVARD.EDU
          URL http://cfa-www.harvard.edu/iau/mpc.html  ISSN 1523-6714

                                  2000 EE104

                           Revision to MPEC 2000-F05

Observations:
     K00EA4E  C2001 02 14.99807 13 02 08.57 +10 10 32.3          18.7 R      046
     K00EA4E  C2001 02 15.00022 13 02 08.60 +10 10 33.4                      046
     K00EA4E  C2001 02 15.00205 13 02 08.64 +10 10 35.1                      046
     K00EA4E  C2001 02 15.00552 13 02 08.66 +10 10 37.0                      046
     K00EA4E  C2001 02 15.00892 13 02 08.68 +10 10 38.8                      046
     K00EA4E  C2001 02 15.01082 13 02 08.75 +10 10 39.6          18.9 R      046
     K00EA4E  C2001 02 15.01604 13 02 08.71 +10 10 41.9                      046
     K00EA4E  C2001 02 15.01780 13 02 08.84 +10 10 43.2          18.8 R      046
     K00EA4E  C2001 02 15.95414 13 02 24.43 +10 18 59.1          18.7 R      046
     K00EA4E  C2001 02 15.95579 13 02 24.49 +10 19 00.1                      046
     K00EA4E  C2001 02 15.95743 13 02 24.52 +10 19 01.5                      046
     K00EA4E  C2001 02 15.95909 13 02 24.51 +10 19 01.7          18.8 R      046
     K00EA4E  C2001 02 15.96088 13 02 24.47 +10 19 02.7                      046

Observer details:
046 Klet.  Observer M. Tichy.  0.57-m f/5.2 reflector + CCD.

First and last observations above in comparison with prediction:
Residuals in seconds of arc, reference and Delta-T
010214 046 12.8+  6.4-    010215 046 11.7+  6.5-    MPO   728   -0.00001 day

Orbital elements:
2000 EE104                                                           PHA 0.009
Epoch 2001 Apr. 1.0 TT = JDT 2452000.5                  Marsden
M 273.43508              (2000.0)            P               Q
n   0.97923160     Peri.  280.94488     +0.60236627     +0.79719639
a   1.0043362      Node    26.22526     -0.69199409     +0.54676729
e   0.2939642      Incl.    5.24650     -0.39786814     +0.25597546
P   1.01           H   20.5           G   0.15           U   4
Residuals in seconds of arc
000311 703  1.0+  0.0     000323 670  0.4-  0.4-    000406 071  0.2+  0.4-
000311 703  0.1+  0.3+    000323 670  0.2-  0.7-    000406 071  0.3+  0.3-
000311 703  0.2+  0.1+    000325 046  0.3-  0.2+    000406 071  0.0   0.3-
000311 703  0.6+  0.0     000325 046  0.1-  0.4+    000406 071  0.5+  0.4-
000311 046  0.5+  0.0     000325 046  0.3-  0.4+    000407 860  0.8-  0.9+
000311 046  0.2+  0.2+    000325 046  0.3+  0.0     000407 151  0.0   0.5-
000311 046  0.5+  0.1-    000325 046  0.2-  0.3+    000407 860  0.9-  1.0+
000311 046  0.7+  0.1-    000329 704  0.1+  0.1+    000407 860  1.3+  0.4+
000311 046  0.2+  0.2-    000329 704  0.1+  0.4+    000407 151  0.5-  0.4-
000311 046  0.3+  0.5-    000329 704  0.2+  0.2+    000407 151  0.3+  1.2-
000312 858  0.3-  0.4-    000329 704  0.3+  0.0     000407 151  0.2-  0.0
000312 858  0.3-  0.6+    000330 360  0.2-  0.1-    000407 151  0.6+  0.7-
000312 858  0.3+  0.2-    000330 360  0.2-  0.2-    000407 151  1.3-  1.1-
000312 670  0.1+  0.2+    000330 360  0.5-  0.0     000407 587  0.5+  0.2-
000312 670  0.2+  0.0     000331 670  0.1+  0.4-    000407 587  0.2+  0.2-
000312 163  0.3-  0.1-    000331 670  1.1-  0.5-    000407 587  0.7+  0.1-
000312 163  0.8+  0.4-    000331 540  0.5+  0.0     000407 610  1.1+  0.1+
000312 163  0.3-  0.6+    000331 540  0.3+  0.2-    000407 151 (2.4+  0.6-)
000312 163  0.1-  0.0     000331 540  0.1-  0.1+    000407 610  1.0+  0.0
000313 345  1.2-  1.2+    000331 540  0.2+  0.1-    000407 151 (2.1+  0.1-)
000313 345  1.3-  1.1+    000331 046  0.1+  0.0     000407 610  0.9+  0.1-
000313 413  0.1-  0.0     000331 046  0.1-  0.0     000407 151  0.9+  0.3+
000313 046  0.0   1.3-    000331 046  0.1-  0.0     000407 610  0.9+  0.1-
000313 046  0.3+  0.5+    000331 046  0.1-  0.0     000407 151  0.9+  0.5+
000313 046  0.0   0.2-    000331 046  0.1+  0.0     000407 151  0.8+  0.2-
000313 046  0.8+  0.4+    000331 046  0.3+  0.0     000407 151  1.6+  0.1+
000313 046  0.4+  0.2+    000401 670  0.6-  0.7-    000408 610  0.5-  0.2+
000313 046  0.1-  0.0     000401 670  0.5-  0.5-    000408 610  0.6-  0.1+
000313 046  0.3+  0.3+    000401 670  0.2+  0.6-    000408 610  0.6-  0.1+
000313 046  0.3+  0.5+    000401 151  0.7-  0.7-    000408 610  0.7-  0.1+
000313 461  0.0   0.4-    000401 151  0.3-  0.5+    000408 610  0.6-  0.2+
000313 461  0.4-  0.1-    000401 151  0.6-  0.3+    000409 046  0.4+  0.1-
000313 461  0.1-  0.1+    000401 151  0.5-  0.7+    000409 046  0.0   0.9+
000313 461  0.4-  0.1-    000401 151  0.3+  0.4+    000409 046  0.2+  0.0
000313 587  1.1-  1.3-    000401 151  0.8-  0.6+    000409 046  0.4+  0.3+
000313 587  0.4-  1.0-    000401 610  0.4+  0.2+    000409 046  0.5+  0.2+
000313 587  0.1+  0.2-    000401 610  0.2+  0.3+    000409 046  0.6+  0.1+
000314 850  0.2-  0.5-    000401 610  0.1+  0.2+    000410 670  0.9-  0.3-
000314 850  0.3-  0.5+    000401 610  0.1-  0.2+    000410 670  0.3-  0.1-
000314 850  0.1-  0.7-    000402 704  0.1+  0.1-    000410 670  0.1-  0.1-
000314 850  0.6+  0.1-    000402 704  0.4+  0.3-    000411 670  1.4-  0.2+
000314 402  0.4-  0.2-    000402 704  0.5+  0.1-    000411 670  1.7-  0.1-
000314 402  0.3-  0.1+    000402 704  0.5+  0.2-    000411 670  0.3+  0.8-
000314 402  0.0   0.0     000402 704  0.5+  0.1-    000413 118  1.1+  0.3-
000314 402  0.2-  0.0     000402 151  0.7+  0.1+    000413 118  0.7+  0.7+
000315 858  0.0   0.3-    000402 151  0.0   0.9+    000414 118  1.6-  0.2+
000315 858  0.3+  0.3+    000402 151  0.0   0.4+    000414 118 (2.8+  0.4+)
000315 858  0.2+  0.1-    000402 151  0.4+  0.4+    010214 046  0.3+  0.1+
000315 651 (2.1-  0.2+)   000402 151  0.3+  0.4+    010215 046  0.4+  0.1+
000315 651 (2.3-  0.0 )   000402 151  0.4+  0.5+    010215 046  0.7+  0.8+
000315 413  0.0   0.2-    000403 670  0.7-  0.0     010215 046  0.3+  0.9+
000315 413  0.1+  0.1-    000403 670  0.9-  0.0     010215 046  0.1+  0.9+
000315 422  0.1+  0.4-    000405 860  0.1+  0.4+    010215 046  0.8+  0.7+
000315 422  0.1-  0.5-    000405 860  1.9-  0.7+    010215 046  0.7-  0.2+
000315 422  0.2-  0.3-    000405 860  1.7-  0.0     010215 046  0.9+  0.6+
000318 670  1.2-  0.4-    000406 900  0.4-  0.3+    010215 046  0.3-  0.0
000318 670  1.5-  0.7-    000406 900  0.5-  0.4+    010215 046  0.4+  0.0
000318 670  1.9-  0.1-    000406 071  0.7-  0.5-    010215 046  0.6+  0.5+
000322 046  0.4+  0.4-    000406 071  0.3+  0.2-    010215 046  0.2+  0.2-
000322 046  0.9+  0.1-    000406 071  0.4+  0.1+    010215 046  0.6-  0.2-
000322 046  0.4+  0.2+    000406 071  0.2+  0.2-
000322 046  0.8+  0.0     000406 071  0.2+  0.2-

Ephemeris:
2000 EE104               a,e,i = 1.00, 0.29, 5                   q = 0.7091
Date    TT    R. A. (2000) Decl.     Delta      r     Elong.  Phase     V
2001 02 10    12 59.88   +09 34.1    0.358    1.247   129.7    37.5    20.3
2001 02 15    13 02.13   +10 10.8    0.323    1.234   134.0    35.2    20.0
2001 02 20    13 02.79   +11 00.8    0.289    1.221   138.5    32.4    19.6
2001 02 25    13 01.47   +12 06.0    0.257    1.206   143.4    29.3    19.2
2001 03 02    12 57.67   +13 28.5    0.227    1.190   148.4    25.9    18.8
2001 03 07    12 50.73   +15 10.8    0.198    1.173   153.4    22.2    18.4
2001 03 12    12 39.71   +17 15.1    0.172    1.155   157.7    19.0    18.0
2001 03 17    12 23.23   +19 43.6    0.148    1.135   159.7    17.7    17.6
2001 03 22    11 59.39   +22 34.3    0.128    1.115   156.8    20.6    17.3
2001 03 27    11 25.82   +25 36.8    0.110    1.093   148.6    28.4    17.2
2001 04 01    10 40.24   +28 23.7    0.096    1.071   136.0    40.4    17.2
2001 04 06    09 42.13   +30 06.5    0.087    1.047   120.2    55.7    17.3
2001 04 11    08 35.35   +29 51.0    0.083    1.023   102.2    73.2    17.7
2001 04 16    07 28.51   +27 20.2    0.083    0.998    83.6    91.6    18.3
2001 04 21    06 29.53   +23 18.6    0.089    0.972    65.8   109.4    19.3
2001 04 26    05 41.19   +18 53.2    0.098    0.946    49.9   125.6    20.6
2001 05 01    05 02.48   +14 50.7    0.112    0.920    36.1   139.8    22.4

Brian G. Marsden             (C) Copyright 2001 MPC           M.P.E.C. 2001-C39

Read MPEC 2001-C38 Read MPEC 2001-D01


MPEC number:

Enter an MPEC number in one of the following forms:

  • 1997-B01 (the full form)
  • J97B01 (the packed version of the full form)
  • B01 (the abbreviated form)

Valid HTML 4.01!